FW1194 Weather Reports


Display with metric or nautical units.
time (UTC)temp
F
wind
direction
speed
MPH
gust
MPH
rain 1hr
in
rain 24hr
in
rain mn
in
humidity
%
barometer
mb
20260504033217 59 203 4.0 7.0 0.00 0.00 0.00 59 1004.8
20260504032218 59 203 4.0 6.0 0.00 0.00 0.00 59 1004.8
20260504031218 59 180 3.0 5.0 0.00 0.00 0.00 59 1004.9
20260504030218 59 0 3.0 5.0 0.00 0.00 0.00 59 1004.9
20260504025217 59 0 3.0 4.0 0.00 0.00 0.00 59 1005.0
20260504024217 59 0 3.0 4.0 0.00 0.00 0.00 59 1005.0
20260504023217 60 203 3.0 4.0 0.00 0.00 0.00 59 1005.0
20260504022217 60 180 3.0 6.0 0.00 0.00 0.00 58 1005.0
20260504021218 61 0 4.0 5.0 0.00 0.00 0.00 57 1004.9
20260504020217 61 203 2.0 3.0 0.00 0.00 0.00 55 1004.8
20260504015217 62 0 4.0 6.0 0.00 0.00 0.00 54 1004.6
20260504014217 62 225 2.0 4.0 0.00 0.00 0.00 53 1004.6
20260504013218 62 203 4.0 7.0 0.00 0.00 0.00 52 1004.4
20260504012217 63 225 4.0 8.0 0.00 0.00 0.00 51 1004.5
20260504011238 64 203 5.0 9.0 0.00 0.00 0.00 50 1004.4
20260504010217 64 203 3.0 4.0 0.00 0.00 0.00 49 1004.3
20260504005218 65 203 4.0 5.0 0.00 0.00 0.00 48 1004.3
20260504004238 66 0 5.0 8.0 0.00 0.00 0.00 47 1004.4
20260504003217 67 225 6.0 9.0 0.00 0.00 0.00 46 1004.4
20260504002217 67 0 6.0 10.0 0.00 0.00 0.00 44 1004.4
20260504001217 68 248 8.0 11.0 0.00 0.00 0.00 43 1004.5
20260504000219 68 225 7.0 11.0 0.00 0.00 0.00 43 1004.4
20260503235237 69 248 10.0 15.0 0.00 0.00 0.00 42 1004.4
20260503234218 69 0 10.0 15.0 0.00 0.00 0.00 41 1004.4
20260503233217 69 248 8.0 13.0 0.00 0.00 0.00 41 1004.4
20260503232218 69 0 10.0 13.0 0.00 0.00 0.00 40 1004.5
20260503231217 69 225 17.0 23.0 0.00 0.00 0.00 40 1004.6
20260503230257 69 0 13.0 18.0 0.00 0.00 0.00 40 1004.6
20260503225217 69 0 12.0 20.0 0.00 0.00 0.00 41 1004.7
20260503224217 69 0 8.0 14.0 0.00 0.00 0.00 41 1004.8
20260503223217 68 0 13.0 19.0 0.00 0.00 0.00 40 1004.8
20260503222217 69 225 11.0 15.0 0.00 0.00 0.00 39 1004.9
20260503221217 69 225 10.0 17.0 0.00 0.00 0.00 40 1004.9
20260503220217 69 180 11.0 16.0 0.00 0.00 0.00 40 1005.0
20260503215217 68 225 7.0 10.0 0.00 0.00 0.00 40 1005.2
20260503214217 68 0 11.0 17.0 0.00 0.00 0.00 40 1005.3
20260503213217 68 0 10.0 14.0 0.00 0.00 0.00 40 1005.4
20260503212217 68 0 12.0 18.0 0.00 0.00 0.00 40 1005.7
20260503211217 67 225 17.0 27.0 0.00 0.00 0.00 40 1005.8
20260503210217 67 203 17.0 27.0 0.00 0.00 0.00 40 1006.0
20260503205237 66 203 15.0 23.0 0.00 0.00 0.00 39 1006.2
20260503204237 67 225 12.0 18.0 0.00 0.00 0.00 39 1006.3
20260503203217 66 225 12.0 21.0 0.00 0.00 0.00 40 1006.6
20260503202217 64 180 12.0 17.0 0.00 0.00 0.00 41 1006.9
20260503201237 65 203 16.0 25.0 0.00 0.00 0.00 41 1006.9
20260503200217 65 180 12.0 17.0 0.00 0.00 0.00 41 1007.1
20260503195217 65 203 15.0 27.0 0.00 0.00 0.00 42 1007.3
20260503194216 64 203 13.0 21.0 0.00 0.00 0.00 46 1007.5
20260503193217 63 203 9.0 19.0 0.00 0.00 0.00 48 1007.6
20260503192237 63 203 9.0 17.0 0.00 0.00 0.00 50 1007.5
20260503191216 62 203 15.0 22.0 0.00 0.00 0.00 51 1007.7
20260503190217 61 158 12.0 19.0 0.00 0.00 0.00 51 1007.6
20260503185217 61 180 10.0 19.0 0.00 0.00 0.00 52 1008.0
20260503184217 60 180 12.0 20.0 0.00 0.00 0.00 54 1008.2
20260503183217 59 180 10.0 19.0 0.00 0.00 0.00 54 1008.3
20260503182217 58 180 7.0 15.0 0.00 0.00 0.00 55 1008.4
20260503181237 57 203 11.0 17.0 0.00 0.00 0.00 56 1008.7
20260503180216 56 203 11.0 17.0 0.00 0.00 0.00 59 1008.9
20260503175237 55 180 8.0 11.0 0.00 0.00 0.00 63 1008.9
20260503174217 54 180 8.0 13.0 0.00 0.00 0.00 64 1009.5
20260503173217 55 180 10.0 18.0 0.00 0.00 0.00 64 1009.9
20260503172217 55 180 7.0 16.0 0.00 0.00 0.00 67 1010.3
20260503171217 54 180 6.0 9.0 0.00 0.00 0.00 67 1010.8
20260503170217 53 180 9.0 14.0 0.00 0.00 0.00 67 1011.0
20260503150216 53 203 7.0 15.0 0.00 0.00 0.00 61 1012.1
20260503140216 51 225 5.0 7.0 0.00 0.00 0.00 59 1012.8
20260503131216 49 225 11.0 13.0 0.00 0.00 0.00 59 1013.1
20260503130216 49 203 10.0 12.0 0.00 0.00 0.00 59 1013.2
20260503120216 48 203 8.0 10.0 0.00 0.00 0.00 58 1013.1
20260503110216 46 225 7.0 9.0 0.00 0.00 0.00 60 1012.8
20260503100216 45 203 7.0 11.0 0.00 0.00 0.00 62 1013.0
20260503090215 44 225 5.0 8.0 0.00 0.00 0.00 61 1013.3
20260503081218 44 225 5.0 7.0 0.00 0.00 0.00 59 1013.6
20260503080217 44 203 5.0 6.0 0.00 0.00 0.00 59 1013.6
20260503072218 44 203 4.0 6.0 0.00 0.00 0.00 59 1013.7
20260503071217 44 225 3.0 5.0 0.00 0.00 0.00 59 1013.7
20260503070218 44 225 2.0 4.0 0.00 0.00 0.00 58 1013.9
20260503060217 44 203 3.0 4.0 0.00 0.00 0.00 57 1014.3
20260503054217 44 203 3.0 5.0 0.00 0.00 0.00 57 1014.4
20260503053218 44 225 4.0 5.0 0.00 0.00 0.00 58 1014.5
20260503052217 44 203 4.0 5.0 0.00 0.00 0.00 58 1014.6
20260503051217 44 203 3.0 5.0 0.00 0.00 0.00 58 1014.6
20260503050217 44 203 2.0 3.0 0.00 0.00 0.00 58 1014.8
20260503045216 45 225 2.0 4.0 0.00 0.00 0.00 58 1014.8
20260503044216 45 225 2.0 4.0 0.00 0.00 0.00 58 1014.8
20260503043216 45 225 4.0 6.0 0.00 0.00 0.00 58 1014.8
20260503042216 45 225 3.0 4.0 0.00 0.00 0.00 58 1014.9
20260503041216 45 225 3.0 5.0 0.00 0.00 0.00 58 1014.9
20260503040216 45 203 3.0 4.0 0.00 0.00 0.00 58 1014.9
20260503035216 45 203 3.0 4.0 0.00 0.00 0.00 58 1015.0
20260503034216 45 203 3.0 5.0 0.00 0.00 0.00 57 1014.9